FENGYUN 2H DEB, 43645

Orbit data source: Space-Track

FENGYUN 2H DEB, 43645 is space debris in GEO originally from a launch on Tue, 05 Jun 2018 UTC launched from the Xichang Space Center, China (XSC). Debris objects in space refer to the collection of defunct objects orbiting the Earth. Examples of debris include non-operational satellites, rocket bodies, and fragments generated from explosions, collisions, or faulty payload assembly.

Not visible in the next 10 days
FENGYUN 2H DEB details
Identifier
43645, 2018-050D
Orbit
GEO
Last TLE update2 days ago
Origin
Flag of CNCNMSC (CN / PRC)
ManufacturerSISE
MissionSpacecraft
Bus & MotorUnknown
MassUnknown
Launch date (UTC)
2018-06-05 (7 years ago)
Launch vehicleUnknown
Launch site
Xichang Space Center, China (XSC)
Object type
Payload
Rocket body
Debris
Shape & HBRCyl, 0.5 m
Radar Cross Section0.137 m²

Expand to show TLE details & history

TLE from 2 days ago
0 FENGYUN 2H DEB
1 43645U 18050D   24359.69747082 -.00000266  00000-0  00000+0 0  9996
2 43645   3.5117  83.2711 0051281 236.9945 122.1946  1.00271636 23497
Epoch: 2024-12-24T16:44Z
Definitive object data (Epoch: 2024-12-24T16:44:21.478Z)
Latitude
Longitude98.16021°
Altitude35,902.752 km
Speed3.066 km/s
True Right ascension05h 31m 48s
True Declination0° 00' 00"
Sunlit
Object was in daylight at TLE epoch
Visualization TLE readout
Latitude-3.50267°
Longitude1.81952°
Altitude35,593.471 km
Speed3.089 km/s
Apparent Right ascension22h 56m 58s
Apparent Declination-8° 07' 40"
Sunlit
Object is in daylight
Visualization observer readout
Local Sidereal Time09:34:19
Azimuth324.283° NNW
Elevation-53.239°
Doppler factor1
Orbital elements
Apogee altitude36,003.932 km
Perigee altitude35,571.471 km
Semi-major axis42,165.838 km
Eccentricity0.0051281
Inclination3.5117°
RAAN83.2711°
Arg. of periapsis236.9945°
True anomaly122.69018°
Mean anomaly122.1946°
Eccentric anomaly122.44256°
Mean motion0.25067 °/min
BSTARUnknown
Orbital period1436.15 mins
Loading historical data...
43645 neighbors
Authenticating...
Loading maneuver chart data...
Loading historical data...
Loading historical data...
Loading historical data...
Loading historical data...
Loading historical data...
Loading historical data...
Loading historical data...
Other satellites on launch #50 in the year 2018 (2018-06-05 UTC)

FENGYUN 2H DEB Visibility forecast

Observer location: undefined°, undefined

FENGYUN 2H DEB is not visible in the next 10 days
Span
Click to sort rows by Start time (UTC) header in descending order
Start Az.
Max El. time (UTC)
Max El. Az.
Max El.
End time (UTC)
End Az.
|